TimeEST,TemperatureF,Dew PointF,Humidity,Sea Level PressureIn,VisibilityMPH,Wind Direction,Wind SpeedMPH,Gust SpeedMPH,PrecipitationIn,Events,Conditions,WindDirDegrees,DateUTC
12:54 AM,12.9,8.1,81,30.03,10.0,WSW,6.9,-,N/A,,Overcast,250,2014-01-18 05:54:00
1:54 AM,12.9,8.1,81,30.02,10.0,WSW,6.9,-,N/A,,Overcast,250,2014-01-18 06:54:00
2:54 AM,14.0,9.0,80,30.03,10.0,WSW,4.6,-,N/A,,Overcast,250,2014-01-18 07:54:00
3:54 AM,14.0,9.0,80,30.02,10.0,SSW,5.8,-,0.00,,Overcast,210,2014-01-18 08:54:00
4:54 AM,12.9,9.0,84,30.02,10.0,WSW,6.9,-,N/A,,Overcast,240,2014-01-18 09:54:00
5:54 AM,10.9,8.1,88,30.01,10.0,SSW,5.8,-,N/A,,Clear,200,2014-01-18 10:54:00
6:54 AM,10.0,6.1,84,30.00,10.0,SSW,5.8,-,N/A,,Clear,210,2014-01-18 11:54:00
7:54 AM,9.0,6.1,88,29.99,10.0,SSW,5.8,-,N/A,,Clear,210,2014-01-18 12:54:00
8:54 AM,10.9,8.1,88,29.96,10.0,South,5.8,-,N/A,,Clear,180,2014-01-18 13:54:00
9:54 AM,12.9,9.0,84,29.97,10.0,South,6.9,-,N/A,,Mostly Cloudy,180,2014-01-18 14:54:00
10:54 AM,15.1,9.0,77,29.94,10.0,SSE,10.4,18.4,N/A,,Partly Cloudy,160,2014-01-18 15:54:00
11:54 AM,17.1,10.0,74,29.90,10.0,SSE,8.1,18.4,N/A,,Overcast,160,2014-01-18 16:54:00
12:54 PM,19.0,10.9,71,29.88,8.0,South,8.1,-,N/A,,Overcast,180,2014-01-18 17:54:00
1:04 PM,19.0,12.0,74,29.84,2.5,SSE,8.1,-,0.00,Snow,Light Snow,160,2014-01-18 18:04:00
1:30 PM,19.0,14.0,81,29.81,1.2,SE,9.2,-,0.00,Snow,Light Snow,140,2014-01-18 18:30:00
1:38 PM,19.0,15.1,85,29.81,0.8,SSE,11.5,-,0.00,Snow,Light Snow,150,2014-01-18 18:38:00
1:54 PM,18.0,15.1,88,29.83,0.5,SSE,9.2,-,0.01,Fog-Snow,Snow,150,2014-01-18 18:54:00
2:15 PM,19.0,16.0,88,29.78,0.8,SE,9.2,-,0.00,Snow,Light Snow,140,2014-01-18 19:15:00
2:41 PM,19.0,16.0,88,29.74,0.8,ESE,15.0,-,0.00,Snow,Light Snow,110,2014-01-18 19:41:00
2:54 PM,19.0,16.0,88,29.77,0.8,ESE,15.0,-,0.00,Snow,Light Snow,110,2014-01-18 19:54:00
3:13 PM,19.9,16.0,85,29.73,1.0,ESE,11.5,-,0.00,Snow,Light Snow,110,2014-01-18 20:13:00
3:33 PM,19.9,17.1,89,29.75,0.8,SE,9.2,-,0.00,Snow,Light Snow,130,2014-01-18 20:33:00
3:49 PM,19.4,17.6,93,29.75,0.8,ESE,9.2,-,0.00,Snow,Light Snow,120,2014-01-18 20:49:00
3:54 PM,19.9,17.1,89,29.78,0.8,ESE,9.2,-,0.00,Snow,Light Snow,120,2014-01-18 20:54:00
4:01 PM,19.9,17.1,89,29.75,1.2,ESE,12.7,-,0.01,Snow,Light Snow,120,2014-01-18 21:01:00
4:47 PM,19.9,17.1,89,29.76,0.8,SE,8.1,-,0.01,Snow,Light Snow,130,2014-01-18 21:47:00
4:54 PM,19.9,18.0,92,29.78,0.8,SE,8.1,-,0.01,Snow,Light Snow,130,2014-01-18 21:54:00
5:13 PM,21.0,18.0,88,29.76,1.2,ESE,8.1,-,0.00,Snow,Light Snow,120,2014-01-18 22:13:00
5:26 PM,21.0,18.0,88,29.76,0.8,SE,8.1,-,0.00,Snow,Light Snow,130,2014-01-18 22:26:00
5:35 PM,21.0,18.0,88,29.77,1.5,SE,8.1,-,0.00,Snow,Light Snow,130,2014-01-18 22:35:00
5:49 PM,21.2,17.6,86,29.77,0.5,SE,9.2,-,0.00,Fog-Snow,Snow,130,2014-01-18 22:49:00
5:54 PM,21.0,18.0,88,29.80,0.5,SE,6.9,-,0.01,Fog-Snow,Snow,130,2014-01-18 22:54:00
6:06 PM,21.0,19.0,92,29.77,1.0,ESE,5.8,-,0.00,Snow,Light Snow,120,2014-01-18 23:06:00
6:11 PM,21.0,19.0,92,29.77,2.0,ESE,6.9,-,0.00,Snow,Light Snow,120,2014-01-18 23:11:00
6:19 PM,21.0,19.0,92,29.76,3.0,ESE,9.2,-,0.00,Snow,Light Snow,120,2014-01-18 23:19:00
6:54 PM,21.9,19.0,89,29.80,3.0,ESE,8.1,-,0.00,Snow,Light Snow,120,2014-01-18 23:54:00
7:01 PM,21.9,19.0,89,29.76,2.0,ESE,9.2,-,0.00,Snow,Light Snow,110,2014-01-19 00:01:00
7:22 PM,21.9,19.0,89,29.76,2.0,East,6.9,-,0.01,Snow,Light Snow,100,2014-01-19 00:22:00
7:54 PM,21.9,19.9,92,29.80,1.2,East,6.9,-,0.01,Snow,Light Snow,100,2014-01-19 00:54:00
8:54 PM,21.9,19.9,92,29.80,1.8,ENE,5.8,-,0.01,Snow,Light Snow,70,2014-01-19 01:54:00
9:02 PM,21.9,19.9,92,29.77,2.0,ENE,6.9,-,0.00,Snow,Light Snow,70,2014-01-19 02:02:00
9:54 PM,21.9,19.9,92,29.80,2.0,NE,5.8,-,0.01,Snow,Light Snow,40,2014-01-19 02:54:00
10:10 PM,21.9,19.0,89,29.78,4.0,NNE,6.9,-,0.00,Snow,Light Snow,20,2014-01-19 03:10:00
10:20 PM,21.9,19.0,89,29.78,5.0,NNE,5.8,-,0.00,,Overcast,20,2014-01-19 03:20:00
10:54 PM,21.0,19.0,92,29.81,8.0,NNE,6.9,-,0.00,,Overcast,30,2014-01-19 03:54:00
11:47 PM,21.0,18.0,88,29.79,8.0,North,4.6,-,N/A,,Overcast,360,2014-01-19 04:47:00
11:54 PM,19.9,18.0,92,29.82,7.0,North,5.8,-,N/A,,Overcast,350,2014-01-19 04:54:00